This demonstration page uses our WeatherBlox Daily Observations layout. Learn more.

Left ArrowRight Arrow

Hourly Observations for March 13, 2016

Temp ( °F °C ) Dew Point ( °F °C ) Humidity (%) Winds ( mph kmh ) Pressure ( in mb ) Visibility ( mi km ) Precip ( " mm )
12:42 am 00:42 Cloudy with Mist and Fog 55 13 54 12 94 94 SE 9 15 29.80 1009 6 10 0.00 0.00
12:54 am 00:54 Cloudy with Mist and Fog 55 12.8 53 11.7 93 93 SSE 9 15 29.80 1009 6 10 0.00 0.00
1:51 am 01:51 Cloudy with Mist and Fog 54 12 54 12 100 100 SSE 9 15 29.80 1009 2 3 0.00 0.00
1:54 am 01:54 Cloudy with Mist and Fog 54 12.2 54 12.2 100 100 SSE 7 11 29.80 1009 2 3 0.00 0.00
3:28 am 03:28 Cloudy with Mist and Fog 54 12 54 12 100 100 SE 7 11 29.80 1009 2 3 0.00 0.00
3:51 am 03:51 Cloudy with Mist and Fog 54 12 54 12 100 100 SE 7 11 29.77 1008 2 3 0.00 0.00
3:54 am 03:54 Cloudy with Mist and Fog 54 12.2 54 12.2 100 100 SE 7 11 29.78 1008 2 3 0.00 0.00
4:12 am 04:12 Cloudy with Mist and Fog 54 12 54 12 100 100 SE 7 11 29.77 1008 2 3 0.00 0.00
4:30 am 04:30 Cloudy with Mist and Fog 54 12 54 12 100 100 SE 6 9 29.77 1008 3 5 0.00 0.00
4:54 am 04:54 Cloudy with Mist and Fog 54 12.2 54 12.2 100 100 SSE 5 7 29.76 1008 4 6 0.00 0.00
5:25 am 05:25 Cloudy with Mist and Fog 54 12.2 53 11.7 97 97 SSE 3 6 29.77 1008 4 6 0.00 0.00
5:54 am 05:54 Cloudy with Mist and Fog 54 12.2 53 11.7 97 97 ESE 6 9 29.76 1008 3 5 0.00 0.00
6:13 am 06:13 Cloudy with Mist and Fog 54 12.2 53 11.7 97 97 SE 7 11 29.77 1008 3 4 0.00 0.00
6:26 am 06:26 Cloudy with Mist and Fog 54 12 54 12 100 100 ESE 7 11 29.77 1008 2 2 0.00 0.00
6:54 am 06:54 Cloudy with Mist and Fog 54 12.2 53 11.7 97 97 SE 7 11 29.76 1008 2 3 0.00 0.00
7:21 am 07:21 Cloudy with Mist and Fog 54 12.2 53 11.7 97 97 SE 6 9 29.77 1008 2 3 0.00 0.00
7:32 am 07:32 Cloudy with Mist and Fog 54 12 54 12 100 100 SSE 5 7 29.77 1008 4 6 0.00 0.00
7:45 am 07:45 Cloudy with Mist and Fog 54 12.2 53 11.7 97 97 SSE 3 6 29.77 1008 5 8 0.00 0.00
7:54 am 07:54 Cloudy with Light Rain 53 11.7 52 11.1 96 96 SSE 6 9 29.75 1008 5 8 0.00 0.03
8:04 am 08:04 Cloudy with Light Rain 54 12 52 11 94 94 SSE 8 13 29.77 1008 5 8 0.00 0.00
8:54 am 08:54 Cloudy with Mist and Fog 54 12.2 53 11.7 97 97 SSE 7 11 29.75 1007 4 6 0.00 0.03
9:33 am 09:33 Cloudy with Light Rain 54 12.2 53 11.7 97 97 S 7 11 29.74 1007 2 3 0.01 0.25
9:45 am 09:45 Cloudy with Light Rain 55 13 54 12 94 94 S 6 9 29.74 1007 3 5 0.00 0.00
9:54 am 09:54 Cloudy with Light Rain 55 12.8 54 12.2 96 96 S 7 11 29.75 1007 3 5 0.01 0.25
10:17 am 10:17 Cloudy with Light Rain 55 12.8 54 12.2 96 96 S 7 11 29.74 1007 2 3 0.00 0.03
10:25 am 10:25 Cloudy with Light Rain 55 12.8 54 12.2 96 96 S 6 9 29.74 1007 4 6 0.00 0.03
10:54 am 10:54 Cloudy with Mist and Fog 57 13.9 55 12.8 93 93 SSW 8 13 29.74 1007 4 6 0.00 0.03
11:54 am 11:54 Cloudy with Mist and Fog 58 14.4 55 12.8 90 90 S 9 15 29.72 1007 5 8 0.00 0.00
12:54 pm 12:54 Cloudy 59 15 55 12.8 87 87 SW 9 15 29.72 1006 7 11 0.00 0.00
1:54 pm 13:54 Cloudy 60 15.6 55 12.8 84 84 SSW 9 15 29.71 1006 8 13 0.00 0.00
2:49 pm 14:49 Cloudy 61 16 55 13 83 83 S 10 17 29.65 1004 9 14 0.00 0.00
2:54 pm 14:54 Cloudy 61 16.1 55 12.8 81 81 S 10 17 29.68 1005 9 14 0.00 0.00
3:45 pm 15:45 Mostly Cloudy 63 17.2 56 13.3 78 78 S 8 13 29.65 1004 10 16 0.00 0.00
3:54 pm 15:54 Cloudy 62 16.7 55 12.8 78 78 S 8 13 29.67 1005 10 16 0.00 0.00
4:03 pm 16:03 Cloudy 63 17 55 13 77 77 S 7 11 29.65 1004 10 16 0.00 0.00
4:14 pm 16:14 Mostly Cloudy 64 18 55 13 73 73 SSE 8 13 29.65 1004 10 16 0.00 0.00
4:54 pm 16:54 Mostly Cloudy 63 17.2 54 12.2 73 73 SSW 9 15 29.65 1004 10 16 0.00 0.00
5:54 pm 17:54 Partly Cloudy 65 18.3 54 12.2 68 68 SSW 9 15 29.63 1004 10 16 0.00 0.00
6:54 pm 18:54 Sunny 62 16.7 53 11.7 73 73 SSW 7 11 29.64 1004 10 16 0.00 0.00
7:54 pm 19:54 Clear 56 13.3 51 10.6 84 84 S 6 9 29.65 1004 10 16 0.00 0.00
8:54 pm 20:54 Clear 55 12.8 51 10.6 87 87 Calm 29.66 1005 10 16 0.00 0.00
9:54 pm 21:54 Cloudy 53 11.7 51 10.6 93 93 SSE 5 7 29.67 1005 10 16 0.00 0.00
10:54 pm 22:54 Mostly Cloudy 54 12.2 51 10.6 90 90 SSE 6 9 29.66 1004 9 14 0.00 0.00
11:54 pm 23:54 Clear 51 10.6 49 9.4 92 92 S 6 9 29.65 1004 8 13 0.00 0.00

Powered by AerisWeather